Regional Weather Roundup
Issued by NWS

Home | Current Version | Previous Version | Graphics & Text | Print | Product List | Glossary On
Versions: 1 2 3 4 5 6 7 8 9 10 11 12 13 14 15 16 17 18 19 20 21 22 23 24 25 26 27 28 29 30 31 32 33 34 35 36 37 38 39 40 41 42 43 44 45 46 47 48 49 50
000
ASUS43 KMPX 291601
RWRMN
WEATHER ROUNDUP FOR MINNESOTA
NATIONAL WEATHER SERVICE TWIN CITIES/CHANHASSEN MN
1100 AM CDT SAT AUG 29 2015


NOTE: "FAIR" INDICATES FEW OR NO CLOUDS BELOW 12,000 FEET WITH NO
SIGNIFICANT WEATHER AND/OR OBSTRUCTIONS TO VISIBILITY. N/A MEANS
CURRENT SKY AND/OR WEATHER CONDITIONS ARE NOT AVAILABLE.

MNZ060>063-068>070-291700-
   Twin Cities Metro

CITY           SKY/WX    TMP DP  RH WIND       PRES   REMARKS
TWIN CITIES    CLOUDY    60  58  92 S5        30.08R
ST PAUL        CLOUDY    60  58  92 E3        30.08S
CRYSTAL        SUNNY     65  58  78 SE6       30.06S
BLAINE         MOSUNNY   66  61  82 CALM      30.07S FOG
LAKEVILLE      CLOUDY    59  59 100 CALM      30.08S
EDEN PRAIRIE   CLOUDY    61  58  90 CALM      30.07R FOG
SOUTH ST PAUL  CLOUDY    60  58  91 CALM      30.08S FOG
LAKE ELMO      CLOUDY    59  57  94 CALM      30.09S
$$
MNZ001>005-007-008-013>017-022>024-027-028-291700-
   Northwest Minnesota

CITY           SKY/WX    TMP DP  RH WIND       PRES   REMARKS
BEMIDJI        SUNNY     69  62  79 S7        30.00S
HALLOCK        FOG       66  64  94 S8        29.92R VSB 1/2
ROSEAU         CLOUDY    66  63  88 SE7       29.95S
WARROAD        CLOUDY    66  63  88 SE5       29.96S FOG
THIEF RVR FALL MOSUNNY  N/A N/A N/A S10       29.94S
CROOKSTON      MOSUNNY   70  64  83 S9        29.94S
FOSSTON        SUNNY     70  63  78 S13       29.97S
DETROIT LAKES  SUNNY     70  63  78 S9        30.01S
MOORHEAD       SUNNY     70  63  78 S13       29.97S
PARK RAPIDS    SUNNY     70  59  68 S12       30.02S
MAHNOMEN       FAIR      71  64  80 SW14      29.98R
$$
MNZ006-009>011-018-025>026-291700-
   North Central Minnesota

CITY           SKY/WX    TMP DP  RH WIND       PRES   REMARKS
BAUDETTE       CLOUDY    68  64  87 S6        29.97S
FLAG ISLAND    FOG       66  64  94 S9        29.95S VSB 1/2
INTL FALLS     PTSUNNY   71  64  78 W6        29.99R
WASKISH        CLOUDY    66  64  94 SE5       30.00R
BIG FORK       CLOUDY    66  61  82 S6        30.02S
LONGVILLE      MOSUNNY   68  61  77 S6        30.02S
GRAND RAPIDS     N/A     64  57  77 S9        30.03S
CRANE LAKE     CLOUDY    64  63  94 SW3       30.02S
COOK           CLOUDY    64  59  82 SW6       30.03S
WALKER         FAIR      67  59  76 SW8       30.01R
$$
MNZ012-019>021-037-291700-
   Northeast Minnesota

CITY           SKY/WX    TMP DP  RH WIND       PRES   REMARKS
DULUTH         CLOUDY    67  57  70 W10       30.04S
ELY            CLOUDY    63  59  88 SW9       30.03S
HIBBING        CLOUDY    65  58  78 VRB3      30.04R
EVELETH        PTSUNNY   63  57  82 SW6       30.05R
DULUTH HARBOR  CLOUDY    66  61  82 W10       30.04R
TWO HARBORS    PTSUNNY   70  61  73 W8        30.02R
SILVER BAY     CLOUDY    70  61  73 CALM      30.01R
GRAND MARAIS     N/A     53  50  89 W5        29.99R
G MARAIS ARPRT MOSUNNY   68  59  73 CALM      30.03R
$$
MNZ029>031-032-039>041-046>048-054>057-064-291700-
   West Central Minnesota

CITY           SKY/WX    TMP DP  RH WIND       PRES   REMARKS
FERGUS FALLS   SUNNY     70  63  78 S13       30.00S
WHEATON        SUNNY     68  63  83 SE8       30.02R
MORRIS         SUNNY     68  61  77 S12       30.03S
ALEXANDRIA     SUNNY     66  59  78 S14       30.06S
ELBOW LAKE     FAIR      67  60  78 S15       30.02R
WADENA         SUNNY     70  61  73 S8        30.02S
GLENWOOD       SUNNY     64  59  82 S10       30.07S
APPLETON       SUNNY     70  59  68 SE7       30.04S
BENSON         SUNNY     66  59  77 S8        30.05F
ORTONVILLE     SUNNY     66  61  82 SE7       30.02F
MADISON        SUNNY     68  61  77 S6        30.04F
WILLMAR        PTSUNNY   63  61  94 S3        30.08S
$$
MNZ033>034-036-042>043-049>051-058-059-291700-
   Central Minnesota

CITY           SKY/WX    TMP DP  RH WIND       PRES   REMARKS
ST CLOUD       MOSUNNY   65  59  81 S5        30.06S
SAUK CENTRE    FAIR      65  59  81 S6        30.06F
PAYNESVILLE    SUNNY     64  58  81 SE5       30.07F
AITKIN         CLOUDY    66  57  72 S9        30.04S
PINE RIVER     SUNNY     66  59  77 S7        30.06S
BRAINERD       CLOUDY    64  57  78 S10       30.05S
STAPLES        SUNNY     66  57  72 S7        30.04R
LONG PRAIRIE   FAIR      64  57  77 S10       30.06S
LITTLE FALLS   SUNNY     64  55  72 S7        30.06S
LITCHFIELD     PTSUNNY   63  63 100 CALM      30.07F
BUFFALO        CLOUDY    59  56  91 SW3       30.08S FOG
MAPLE LAKE     PTSUNNY   63  60  91 CALM      30.08S
$$
MNZ037-044-045-052-053-291700-
   East Central Minnesota

CITY           SKY/WX    TMP DP  RH WIND       PRES   REMARKS
PRINCETON      SUNNY     66  59  77 S3        30.07S
MORA           SUNNY     64  57  77 SW3       30.07S
CAMBRIDGE      SUNNY     68  55  64 S3        30.05S
RUSH CITY      SUNNY     66  59  77 S3        30.07S
MOOSE LAKE     CLOUDY    64  55  72 SW8       30.04R
HINCKLEY       FAIR      66  59  77 SW3       30.06S
CLOQUET        CLOUDY    64  55  72 SW3       30.05R
MCGREGOR       CLOUDY    63  57  82 S8        30.05S
$$
MNZ071>073-080-081-089-090-097-098-291700-
   Southwest Minnesota

CITY           SKY/WX    TMP DP  RH WIND       PRES   REMARKS
MONTEVIDEO     SUNNY     70  61  73 S8        30.08S
GRANITE FALLS  SUNNY     65  60  83 SE5       30.08S
CANBY          SUNNY     70  61  72 S7        30.07R
MARSHALL       SUNNY     68  55  64 S8        30.08R
REDWOOD FALLS  CLOUDY    59  58  96 S6        30.07S FOG
OLIVIA         CLOUDY    57  55  94 S3        30.06F FOG
PIPESTONE      SUNNY     66  61  82 CALM      30.08R
WINDOM         CLOUDY    61  61 100 CALM      30.09S
WORTHINGTON    CLOUDY    61  55  82 SE6       30.09S
JACKSON        CLOUDY    61  59  94 CALM      30.10S
TRACY          SUNNY     68  60  77 SE7       30.08S
SLAYTON        SUNNY     66  60  82 CALM      30.09S
$$
MNZ065>067-074>077-082>085-091>093-291700-
   South Central Minnesota

CITY           SKY/WX    TMP DP  RH WIND       PRES   REMARKS
MANKATO        CLOUDY    59  55  88 CALM      30.08R
NEW ULM        FOG       57  57 100 CALM      30.08S VSB 3/4
ST JAMES       CLOUDY    61  59  94 CALM      30.09S
FAIRMONT       CLOUDY    57  54  88 SE5       30.08S
GLENCOE        FOG       59  59 100 CALM      30.08R VSB 1
FARIBAULT      CLOUDY    61  59  94 SE3       30.08S
OWATONNA       CLOUDY    61  59  94 CALM      30.08R
WASECA         CLOUDY    57  55  94 MISG      30.09S FOG
ALBERT LEA     CLOUDY    61  61 100 CALM      30.08R
$$
MNZ078>079-086>088-094>096-291700-
   Southeast Minnesota

CITY           SKY/WX    TMP DP  RH WIND       PRES   REMARKS
ROCHESTER      CLOUDY    64  60  87 NE3       30.08R
RED WING       CLOUDY    63  57  82 NW3       30.07R
STANTON        CLOUDY    61  59  92 CALM      30.07S
DODGE CENTER   PTSUNNY   63  59  88 CALM      30.08R
WINONA         CLOUDY    63  59  88 CALM      30.06R
AUSTIN         CLOUDY    64  61  88 NE3       30.07R
PRESTON        CLOUDY    63  59  88 NE3       30.07R
$$
ABBREVIATIONS USED IN REMARKS
   TC - TEMPERATURES IN CELSIUS
  WCI - WIND CHILL INDEX
   HX - HEAT INDEX
  VSB - VISIBILITY
$$



USA.gov is the U.S. government's official web portal to all federal, state and local government web resources and services.